Regional Weather Roundup
Issued by NWS Jackson, KY

Home | Current Version | Previous Version | Text Only | Print | Product List | Glossary Off
Versions: 1 2 3 4 5 6 7 8 9 10 11 12 13 14 15 16 17 18 19 20 21 22 23 24 25 26 27 28 29 30 31 32 33 34 35 36 37 38 39 40 41 42 43 44 45 46 47 48 49 50

000
ASUS43 KJKL 300110
RWRJKL

EAST KENTUCKY HOURLY WEATHER ROUNDUP
NATIONAL WEATHER SERVICE JACKSON KY
900 PM EDT MON JUN 29 2015

NOTE: "FAIR" INDICATES FEW OR NO CLOUDS BELOW 12,000 FEET WITH
NO SIGNIFICANT WEATHER AND/OR OBSTRUCTIONS TO VISIBILITY.

* THESE REPORTS ARE NOT UNDER NWS QUALITY CONTROL AND MAY NOT
  REPORT WEATHER SUCH AS PRECIPITATION AND FOG.

KYZ079-080-083-085-087-088-110-112-115-119-120-300200
...EASTERN KENTUCKY...

CITY           SKY/WX    TMP DP  RH WIND       PRES   REMARKS
JACKSON        CLOUDY    67  65  93 CALM      29.89F
LONDON         CLOUDY    71  65  81 S3        29.90R
SOMERSET*      CLOUDY    68  68 100 SW6       29.90S
MONTICELLO*    CLOUDY    67  67 100 S6        29.94S
MIDDLESBORO*   TSTM      67  64  87 W5        29.94R
HARLAN APT*      N/A     68  66  94 N6        29.94R
HAZARD APT*    LGT RAIN  72  66  83 SW5       29.91R
PIKEVILLE APT* CLOUDY    73  63  68 S9        29.89R
BIG SANDY*     DRIZZLE   74  64  72 CALM      29.89R
MOREHEAD APT*  MOCLDY    68  63  83 S6        29.86F
$$

KYZ035-036-041-042-044-050-067-078-099-300200
...CENTRAL KENTUCKY...

CITY           SKY/WX    TMP DP  RH WIND       PRES   REMARKS
MT STERLING*   CLOUDY    66  64  94 SW7       29.86S
FLEMING/MASON* MOCLDY   N/A N/A N/A S6        29.84R
DANVILLE*      CLOUDY    68  64  88 SW7       29.87R
RICHMOND*      CLOUDY    70  64  83 SW10      29.85S
LEXINGTON      MOCLDY    71  66  84 SW9       29.83S
FRANKFORT      CLOUDY    73  68  84 SW6       29.82R
$$

KYZ091>093-OHZ055-061-077-WVZ005-015-034-035-042-300200
...SOUTHERN OHIO/WEST VIRGINIA...

CITY           SKY/WX    TMP DP  RH WIND       PRES   REMARKS
COVINGTON      MOCLDY    71  65  81 W6        29.83R
COLUMBUS       CLOUDY    66  63  90 SE3       29.81S
DAYTON         PTCLDY    67  63  87 CALM      29.84R
WILMINGTON     MOCLDY    68  64  87 CALM      29.81S
HUNTINGTON     CLOUDY    67  67 100 SE3       29.84S
CHARLESTON     LGT RAIN  69  64  84 N8G21     29.86R
PINEVILLE*     MOCLDY    67  64  90 MISG      29.98R
BECKLEY        PTCLDY    69  56  62 SE6       29.96F
BLUEFIELD      MOCLDY    71  55  56 S9        30.00F
$$

VAZ002-007-008-TNZ017-027-036-066-071-300200
...SOUTHWEST VIRGINIA/EAST TENNESSEE...

CITY           SKY/WX    TMP DP  RH WIND       PRES   REMARKS
WISE*          CLOUDY    70  59  68 SW9       30.00R
JONESVILLE*      N/A    N/A N/A N/A MISG        N/A
ABINGDON*      CLOUDY    74  61  62 CALM      29.98R
BRISTOL        PTCLDY    77  61  57 SW6       29.95R
KNOXVILLE      MOCLDY    78  64  61 SW12      29.92R
OAK RIDGE      MOCLDY    81  64  56 VRB5      29.94R
CROSSVILLE     PTCLDY    75  64  68 S8        29.97R
NASHVILLE      MOCLDY    81  70  69 S6        29.88R
$$

...KEY TO REMARKS...
VSB - VISIBILITY IN MILES
WCI - WIND CHILL INDEX
HX  - HEAT INDEX

$$



USA.gov is the U.S. government's official web portal to all federal, state and local government web resources and services.